• In Hungary
  • List of Countries
  • For 7 days
  • Water Temperature
  • Satellite Maps
  • Weather Map
  • News
  • Weather Widgets
  • user-avatar
    Login

    Hourly Weather Maintal

    Today, 20 November, Monday

    Time Temperature Precipitation Wind Pressure Humidity
    00:00 +3°C° 0 mm 4 mps 755 mmHg 84%
    01:00 +4°C° 0 mm 4 mps 755 mmHg 86%
    02:00 +3°C° 0 mm 3 mps 755 mmHg 87%
    03:00 +3°C° 0 mm 3 mps 755 mmHg 87%
    04:00 +2°C° 0 mm 3 mps 755 mmHg 88%
    05:00 +2°C° 0 mm 3 mps 755 mmHg 88%
    06:00 +2°C° 0 mm 3 mps 756 mmHg 89%
    07:00 +2°C° 0 mm 3 mps 755 mmHg 89%
    08:00 +2°C° 0 mm 3 mps 755 mmHg 86%
    09:00 +2°C° 0 mm 3 mps 755 mmHg 83%
    10:00 +3°C° 0 mm 4 mps 756 mmHg 79%
    11:00 +3°C° 0.2 mm 4 mps 755 mmHg 78%
    12:00 +3°C° 0.2 mm 4 mps 755 mmHg 76%
    13:00 +3°C° 0 mm 4 mps 755 mmHg 76%
    14:00 +3°C° 0.5 mm 4 mps 754 mmHg 78%
    15:00 +3°C° 0.5 mm 4 mps 753 mmHg 79%
    16:00 +3°C° 0.5 mm 4 mps 752 mmHg 81%
    17:00 +3°C° 0.7 mm 4 mps 752 mmHg 84%
    18:00 +4°C° 0.7 mm 4 mps 751 mmHg 86%
    19:00 +4°C° 0.7 mm 4 mps 751 mmHg 89%
    20:00 +5°C° 0.4 mm 5 mps 750 mmHg 89%
    21:00 +5°C° 0.4 mm 5 mps 750 mmHg 89%
    22:00 +5°C° 0.4 mm 6 mps 750 mmHg 89%
    23:00 +5°C° 0.1 mm 6 mps 750 mmHg 89%

    Tomorrow, 21 November, Tuesday

    Time Temperature Precipitation Wind Pressure Humidity
    00:00 +7°C° 0.1 mm 6 mps 749 mmHg 89%
    01:00 +7°C° 0.1 mm 6 mps 749 mmHg 89%
    02:00 +7°C° 0.1 mm 6 mps 749 mmHg 89%
    03:00 +7°C° 0.1 mm 6 mps 749 mmHg 89%
    04:00 +7°C° 0.1 mm 5 mps 749 mmHg 89%
    05:00 +7°C° 0.1 mm 5 mps 749 mmHg 90%
    06:00 +7°C° 0.1 mm 5 mps 749 mmHg 90%
    07:00 +7°C° 0.1 mm 5 mps 749 mmHg 90%
    08:00 +8°C° 0.1 mm 5 mps 750 mmHg 90%
    09:00 +8°C° 0.1 mm 5 mps 750 mmHg 90%
    10:00 +8°C° 0.1 mm 5 mps 750 mmHg 90%
    11:00 +8°C° 0.8 mm 5 mps 750 mmHg 90%
    12:00 +8°C° 0.8 mm 5 mps 750 mmHg 90%
    13:00 +8°C° 0.8 mm 5 mps 750 mmHg 89%
    14:00 +8°C° 0.1 mm 5 mps 750 mmHg 89%
    15:00 +9°C° 0.1 mm 5 mps 750 mmHg 88%
    16:00 +9°C° 0.1 mm 5 mps 750 mmHg 87%
    17:00 +8°C° 0 mm 4 mps 750 mmHg 88%
    18:00 +7°C° 0 mm 4 mps 750 mmHg 89%
    19:00 +6°C° 0 mm 4 mps 750 mmHg 90%
    20:00 +6°C° 0 mm 4 mps 750 mmHg 91%
    21:00 +7°C° 0 mm 3 mps 750 mmHg 91%
    22:00 +7°C° 0 mm 3 mps 750 mmHg 92%
    23:00 +7°C° 0 mm 3 mps 750 mmHg 91%

    Day after tomorrow, 22 November, Wednesday

    Time Temperature Precipitation Wind Pressure Humidity
    00:00 +5°C° 0 mm 3 mps 750 mmHg 91%
    01:00 +5°C° 0 mm 3 mps 750 mmHg 90%
    02:00 +5°C° 0 mm 3 mps 749 mmHg 90%
    03:00 +5°C° 0 mm 3 mps 749 mmHg 90%
    04:00 +5°C° 0 mm 3 mps 749 mmHg 90%
    05:00 +5°C° 0 mm 3 mps 749 mmHg 90%
    06:00 +4°C° 0 mm 3 mps 748 mmHg 90%
    07:00 +4°C° 0 mm 3 mps 748 mmHg 90%
    08:00 +5°C° 0 mm 3 mps 748 mmHg 87%
    09:00 +7°C° 0 mm 3 mps 749 mmHg 84%
    10:00 +8°C° 0 mm 3 mps 749 mmHg 81%
    11:00 +9°C° 0 mm 3 mps 749 mmHg 77%
    12:00 +10°C° 0 mm 3 mps 748 mmHg 73%
    13:00 +11°C° 0 mm 3 mps 748 mmHg 69%
    14:00 +10°C° 0 mm 3 mps 748 mmHg 72%
    15:00 +9°C° 0 mm 3 mps 748 mmHg 74%
    16:00 +9°C° 0 mm 2 mps 747 mmHg 76%
    17:00 +8°C° 0 mm 2 mps 747 mmHg 77%
    18:00 +7°C° 0 mm 2 mps 747 mmHg 79%
    19:00 +7°C° 0 mm 2 mps 747 mmHg 80%
    20:00 +7°C° 0 mm 2 mps 747 mmHg 79%
    21:00 +7°C° 0 mm 2 mps 747 mmHg 79%
    22:00 +7°C° 0 mm 3 mps 747 mmHg 78%
    23:00 +7°C° 0 mm 3 mps 747 mmHg 77%

    23 November, Thursday

    Time Temperature Precipitation Wind Pressure Humidity
    00:00 +7°C° 0 mm 3 mps 747 mmHg 77%
    01:00 +7°C° 0 mm 3 mps 747 mmHg 76%
    02:00 +7°C° 0 mm 3 mps 747 mmHg 77%
    03:00 +7°C° 0 mm 3 mps 747 mmHg 77%
    04:00 +7°C° 0 mm 3 mps 747 mmHg 77%
    05:00 +7°C° 0 mm 3 mps 747 mmHg 78%
    06:00 +8°C° 0 mm 3 mps 747 mmHg 79%
    07:00 +7°C° 0 mm 4 mps 747 mmHg 80%
    08:00 +8°C° 0 mm 4 mps 747 mmHg 78%
    09:00 +10°C° 0 mm 4 mps 748 mmHg 76%
    10:00 +11°C° 0 mm 4 mps 749 mmHg 74%
    11:00 +12°C° 0 mm 5 mps 749 mmHg 72%
    12:00 +13°C° 0 mm 5 mps 749 mmHg 71%
    13:00 +14°C° 0 mm 5 mps 749 mmHg 69%
    14:00 +13°C° 0 mm 5 mps 750 mmHg 72%
    15:00 +13°C° 0 mm 4 mps 750 mmHg 75%
    16:00 +13°C° 0 mm 3 mps 750 mmHg 78%
    17:00 +12°C° 0 mm 3 mps 751 mmHg 81%
    18:00 +12°C° 0 mm 3 mps 751 mmHg 83%
    19:00 +11°C° 0 mm 3 mps 752 mmHg 85%
    20:00 +11°C° 0 mm 3 mps 752 mmHg 86%
    21:00 +11°C° 0 mm 3 mps 752 mmHg 86%
    22:00 +11°C° 0 mm 3 mps 753 mmHg 87%
    23:00 +10°C° 0 mm 3 mps 753 mmHg 88%

    24 November, Friday

    Time Temperature Precipitation Wind Pressure Humidity
    00:00 +10°C° 0 mm 2 mps 753 mmHg 89%
    01:00 +10°C° 0 mm 2 mps 753 mmHg 90%
    02:00 +9°C° 0 mm 2 mps 753 mmHg 90%
    03:00 +9°C° 0 mm 2 mps 753 mmHg 90%
    04:00 +9°C° 0 mm 2 mps 752 mmHg 90%
    05:00 +9°C° 0 mm 2 mps 752 mmHg 89%
    06:00 +9°C° 0 mm 2 mps 753 mmHg 88%
    07:00 +8°C° 0 mm 2 mps 753 mmHg 87%
    08:00 +9°C° 0 mm 2 mps 753 mmHg 83%
    09:00 +10°C° 0 mm 3 mps 753 mmHg 79%
    10:00 +11°C° 0 mm 3 mps 753 mmHg 75%
    11:00 +12°C° 0 mm 3 mps 752 mmHg 71%
    12:00 +13°C° 0 mm 3 mps 752 mmHg 68%
    13:00 +13°C° 0 mm 3 mps 752 mmHg 64%
    14:00 +13°C° 0 mm 3 mps 752 mmHg 66%
    15:00 +12°C° 0 mm 3 mps 752 mmHg 68%
    16:00 +12°C° 0 mm 3 mps 751 mmHg 70%
    17:00 +12°C° 0 mm 2 mps 751 mmHg 71%
    18:00 +12°C° 0 mm 2 mps 751 mmHg 73%
    19:00 +12°C° 0 mm 2 mps 751 mmHg 74%
    20:00 +10°C° 0 mm 2 mps 751 mmHg 75%
    21:00 +10°C° 0 mm 2 mps 752 mmHg 75%
    22:00 +10°C° 0 mm 2 mps 752 mmHg 76%
    23:00 +10°C° 0 mm 2 mps 751 mmHg 75%

    25 November, Saturday

    Time Temperature Precipitation Wind Pressure Humidity
    00:00 +10°C° 0 mm 2 mps 751 mmHg 75%
    01:00 +10°C° 0 mm 2 mps 751 mmHg 74%
    02:00 +9°C° 0 mm 2 mps 751 mmHg 74%
    03:00 +9°C° 0 mm 2 mps 751 mmHg 74%
    04:00 +9°C° 0 mm 2 mps 750 mmHg 74%
    05:00 +9°C° 0 mm 2 mps 750 mmHg 74%
    06:00 +9°C° 0 mm 2 mps 750 mmHg 74%
    07:00 +10°C° 0 mm 3 mps 750 mmHg 73%
    08:00 +10°C° 0 mm 3 mps 750 mmHg 71%
    09:00 +11°C° 0 mm 3 mps 750 mmHg 68%
    10:00 +11°C° 0 mm 4 mps 749 mmHg 65%
    11:00 +12°C° 0.1 mm 4 mps 749 mmHg 64%
    12:00 +13°C° 0.1 mm 4 mps 749 mmHg 62%
    13:00 +14°C° 0.1 mm 5 mps 748 mmHg 60%
    14:00 +13°C° 0.3 mm 5 mps 749 mmHg 65%
    15:00 +12°C° 0.3 mm 5 mps 749 mmHg 70%
    16:00 +12°C° 0.3 mm 4 mps 749 mmHg 74%
    17:00 +11°C° 0.5 mm 4 mps 749 mmHg 78%
    18:00 +11°C° 0.5 mm 4 mps 749 mmHg 82%
    19:00 +11°C° 0.5 mm 4 mps 750 mmHg 86%
    20:00 +11°C° 0.1 mm 4 mps 750 mmHg 86%
    21:00 +10°C° 0.1 mm 4 mps 749 mmHg 86%
    22:00 +10°C° 0.1 mm 4 mps 749 mmHg 87%
    23:00 +9°C° 0.1 mm 5 mps 750 mmHg 85%
    Show more